DateTimeUTC,F1_A11,F1_S11,BsB_S11,BsG_S11,BsR_S11,BbsB_S11,BbsG_S11,BbsR_S11,BaB_A11,BaG_A11,BaR_A11,Tu_S11,T_S11,Uu_S11,U_S11,P_S11,T1_A11
2021-03-21T10:00:00Z,00000200,21000000,,,,,,,-000.28,-000.06,-000.01,17.3,24.8,,00.0,0632.6,31.0
2021-03-21T10:01:00Z,00000200,21000000,,,,,,,-000.34,-000.53,-000.15,17.3,24.8,,00.0,0632.6,31.0
2021-03-21T10:02:00Z,00000200,21000000,,,,,,,-000.35,-000.19,-000.04,17.3,24.8,,00.0,0632.6,31.0
2021-03-21T10:03:00Z,00000200,61000000,,,,,,,-000.11,0000.06,-000.13,17.3,24.8,,00.0,0632.6,31.0
2021-03-21T10:04:00Z,00000200,41000000,0000.07,0000.09,0000.02,-000.14,-000.11,0000.05,-000.08,0000.02,0000.09,17.4,24.6,,00.0,0633.5,31.0
2021-03-21T10:05:00Z,00000200,01000000,0000.79,0000.15,0000.15,0000.22,0000.11,-000.18,0000.16,-000.15,0000.12,17.4,24.6,,00.0,0633.5,31.0
2021-03-21T10:06:00Z,00000200,01000000,0000.26,0000.07,0000.19,0000.27,0000.04,0000.15,0000.07,-000.02,-000.15,17.4,24.5,,00.0,0633.5,31.0
2021-03-21T10:07:00Z,00000200,01000000,0000.30,0000.25,0000.14,0000.39,0000.17,-000.06,0000.06,0000.30,0000.35,17.4,24.5,,00.0,0633.5,31.0
2021-03-21T10:08:00Z,00000200,01000000,0000.46,-000.02,0000.16,0000.18,-000.14,0000.25,0000.09,0000.18,0000.02,17.4,24.5,,00.0,0633.4,31.0
2021-03-21T10:09:00Z,00000200,01000000,-000.00,0000.39,0000.18,0000.28,0000.19,0000.08,-000.03,-000.00,-000.19,17.4,24.5,,00.0,0633.4,31.0
2021-03-21T10:10:00Z,00000200,01000000,-000.02,0000.08,0000.08,-000.09,0000.11,-000.09,0000.22,-000.24,-000.01,17.4,24.5,,00.0,0633.4,31.0
2021-03-21T10:11:00Z,00000200,01000000,0000.57,0000.45,0000.11,0000.33,0000.28,0000.24,-000.04,0000.11,0000.21,17.4,24.4,,00.0,0633.4,31.0
2021-03-21T10:12:00Z,00000200,01000000,0000.40,0000.16,0000.05,0000.43,0000.05,-000.17,0000.38,0000.34,-000.06,17.4,24.4,,00.0,0633.4,31.0
2021-03-21T10:13:00Z,00000200,01000000,0000.76,0000.14,-000.06,0000.44,0000.04,-000.00,0000.17,0000.11,0000.18,17.3,24.4,,00.0,0633.3,31.0
2021-03-21T10:14:00Z,00000200,01000000,0000.03,0000.14,-000.03,-000.05,0000.09,-000.12,-000.21,-000.02,0000.04,17.3,24.4,,00.0,0633.3,31.0
2021-03-21T10:15:00Z,00000200,01000000,-000.09,0000.22,-000.20,0000.11,0000.11,0000.04,0000.45,0000.16,0000.31,17.3,24.4,,00.0,0633.2,31.0
2021-03-21T10:16:00Z,00000200,01000000,0000.34,0000.39,0000.13,0000.29,-000.03,0000.19,0000.15,-000.03,-000.15,17.3,24.3,,00.0,0633.1,31.0
2021-03-21T10:17:00Z,00000200,01000000,-000.09,0000.35,0000.09,0000.23,0000.01,-000.19,0000.00,0000.17,0000.38,17.3,24.4,,00.0,0633.1,31.0
2021-03-21T10:18:00Z,00000200,01000000,0000.68,0000.05,-000.14,0000.33,0000.04,0000.07,-000.04,0000.09,-000.12,17.3,24.3,,00.0,0633.2,31.0
2021-03-21T10:19:00Z,00000200,01000000,0000.47,0000.08,0000.36,0000.19,0000.05,-000.14,0000.39,0000.03,-000.10,17.3,24.3,,00.0,0633.2,31.0
2021-03-21T10:20:00Z,00000200,01000000,0000.05,0000.14,0000.06,0000.08,0000.00,0000.24,-000.23,0000.19,0000.44,17.3,24.3,,00.0,0633.1,31.0
2021-03-21T10:21:00Z,00000200,01000000,0000.40,0000.28,-000.23,0000.01,0000.13,0000.03,0000.32,0000.13,-000.04,17.2,24.2,,00.0,0633.0,31.0
2021-03-21T10:22:00Z,00000200,01000000,0000.34,-000.05,0000.26,0000.38,0000.08,0000.18,0000.25,0000.07,-000.23,17.3,24.2,,00.0,0633.0,31.0
2021-03-21T10:23:00Z,00000200,01000000,0000.10,0000.26,-000.06,0000.44,-000.20,-000.07,0000.02,0000.04,0000.26,17.3,24.3,,00.0,0633.1,31.0
2021-03-21T10:24:00Z,00000200,01000000,0000.27,0000.34,0000.40,-000.53,0000.01,-000.09,-000.24,0000.09,0000.17,17.3,24.3,,00.0,0633.1,31.0
2021-03-21T10:25:00Z,00000200,01000000,0000.15,0000.12,0000.13,0000.09,-000.18,0000.24,0000.10,0000.01,-000.08,17.3,24.3,,00.0,0633.0,31.0
2021-03-21T10:26:00Z,00000200,01000000,-000.60,0000.27,-000.09,0000.53,-000.07,0000.06,0000.16,-000.04,0000.24,17.4,24.3,,00.0,0632.9,31.0
2021-03-21T10:27:00Z,00000200,01000000,0000.52,0000.29,0000.40,0000.27,-000.01,0000.27,-000.02,-000.14,0000.00,17.3,24.3,,00.0,0632.9,31.0
2021-03-21T10:28:00Z,00000200,01000000,0000.35,0000.27,0000.18,0000.27,0000.32,-000.10,-000.09,0000.40,-000.14,17.3,24.3,,00.0,0632.9,31.0
2021-03-21T10:29:00Z,00000200,01000000,0000.81,-000.02,0000.14,0000.46,-000.04,-000.02,0000.25,0000.09,-000.09,17.3,24.3,,00.0,0632.9,31.0
2021-03-21T10:30:00Z,00000200,01000000,-000.14,0000.17,0000.28,0000.37,-000.07,0000.20,0000.42,0000.14,0000.27,17.3,24.2,,00.0,0632.8,31.0
2021-03-21T10:31:00Z,00000200,01000000,0000.32,0000.41,0000.08,0000.03,-000.09,-000.03,0000.14,0000.16,0000.12,17.3,24.2,,00.0,0632.8,31.0
2021-03-21T10:32:00Z,00000200,01000000,0001.12,0000.41,0000.11,0000.27,0000.07,0000.07,0000.50,0000.55,0000.61,17.3,24.2,,00.0,0632.9,31.0
2021-03-21T10:33:00Z,00000200,01000000,0000.73,0000.37,0000.13,0000.61,-000.17,0000.15,-000.09,-000.27,-000.50,17.3,24.2,,00.0,0632.8,31.0
2021-03-21T10:34:00Z,00000200,01000000,-000.04,0000.33,0000.12,0000.43,-000.03,0000.14,-000.18,0000.01,0000.08,17.2,24.2,,00.0,0632.9,31.0
2021-03-21T10:35:00Z,00000200,01000000,0000.26,0000.42,0000.27,0000.49,0000.07,-000.01,0000.18,-000.22,-000.02,17.3,24.2,,00.0,0632.9,31.0
2021-03-21T10:36:00Z,00000200,01000000,-000.04,0000.01,0000.18,0000.14,-000.15,0000.24,-000.02,0000.69,0000.53,17.3,24.2,,00.0,0632.9,31.0
2021-03-21T10:37:00Z,00000200,01000000,0000.37,-000.05,0000.20,-000.00,0000.10,-000.09,0000.30,0000.11,0000.24,17.3,24.2,,00.0,0632.9,31.0
2021-03-21T10:38:00Z,00000200,01000000,0000.02,0000.10,0000.16,0000.39,0000.20,0000.05,0000.26,0000.08,0000.04,17.3,24.2,,00.0,0632.9,31.0
2021-03-21T10:39:00Z,00000200,01000000,0000.60,0000.18,0000.22,-000.18,0000.01,0000.36,-000.02,0000.07,0000.21,17.4,24.2,,00.0,0632.9,31.0
2021-03-21T10:40:00Z,00000200,01000000,-000.08,0000.17,0000.08,0000.20,0000.01,0000.17,0000.45,0000.41,0000.11,17.5,24.3,,00.0,0632.9,31.0
2021-03-21T10:41:00Z,00000200,01000000,-000.53,0000.25,0000.09,0000.11,0000.03,0000.23,0000.51,0000.05,0000.46,17.5,24.3,,00.0,0632.9,31.1
2021-03-21T10:42:00Z,00000200,01000000,0000.58,0000.05,0000.18,0000.37,-000.02,0000.20,-000.51,0000.08,-000.15,17.6,24.4,,00.0,0632.9,31.1
2021-03-21T10:43:00Z,00000200,01000000,0000.18,0000.22,0000.01,0000.25,0000.21,0000.09,0000.24,0000.21,-000.12,17.7,24.4,,00.0,0632.9,31.1
2021-03-21T10:44:00Z,00000200,01000000,0000.13,0000.04,-000.02,-000.12,-000.03,-000.02,0000.38,0000.28,0000.47,17.8,24.5,,00.0,0632.9,31.1
2021-03-21T10:45:00Z,00000200,01000000,0000.12,0000.17,0000.37,0000.24,0000.08,0000.13,0000.17,-000.17,-000.14,17.8,24.5,,00.0,0632.8,31.1
2021-03-21T10:46:00Z,00000200,01000000,-000.03,0000.09,0000.00,0000.56,-000.14,-000.05,0000.57,0000.96,0000.23,17.9,24.5,,00.0,0632.8,31.1
2021-03-21T10:47:00Z,00000200,01000000,0000.55,0000.15,0000.16,0000.56,-000.03,0000.26,-000.40,-000.73,-000.12,18.0,24.6,,00.0,0632.7,31.1
2021-03-21T10:48:00Z,00000200,01000000,-000.14,0000.02,0000.16,0000.04,-000.23,0000.10,0000.45,0000.36,0000.23,18.0,24.7,,00.0,0632.7,31.1
2021-03-21T10:49:00Z,00000200,01000000,-000.01,0000.38,0000.16,0000.20,0000.06,0000.03,0000.26,0000.58,0000.12,18.1,24.7,,00.0,0632.7,31.1
2021-03-21T10:50:00Z,00000200,01000000,0000.39,0000.04,0000.03,0000.19,0000.17,0000.15,0000.22,-000.13,0000.26,18.2,24.8,,00.0,0632.7,31.1
2021-03-21T10:51:00Z,00000200,01000000,-000.45,0000.24,0000.22,0000.20,-000.06,0000.15,-000.19,0000.15,-000.12,18.2,24.8,,00.0,0632.7,31.1
2021-03-21T10:52:00Z,00000200,01000000,0000.53,0000.15,0000.09,0000.25,-000.08,-000.03,-000.08,-000.29,-000.04,18.3,24.8,,00.0,0632.7,31.1
2021-03-21T10:53:00Z,00000200,01000000,0000.53,0000.44,-000.00,0000.66,-000.07,-000.16,0000.13,0000.31,-000.09,18.3,24.8,,00.0,0632.7,31.1
2021-03-21T10:54:00Z,00000200,01000000,0000.15,0000.24,0000.44,0000.42,-000.33,0000.12,-000.49,-000.33,-000.07,18.3,24.9,,00.0,0632.8,31.1
2021-03-21T10:55:00Z,00000200,01000000,0000.47,-000.01,0000.02,0000.17,0000.12,-000.08,0000.45,0000.43,0000.48,18.3,24.9,,00.0,0632.7,31.1
2021-03-21T10:56:00Z,00000200,01000000,-000.33,-000.15,-000.05,-000.36,0000.17,-000.21,-000.07,-000.17,-000.28,18.2,24.9,,00.0,0632.7,31.1
2021-03-21T10:57:00Z,00000200,41000000,,,,,,,0000.40,0000.34,0000.16,18.2,24.9,,00.0,0632.7,31.1
2021-03-21T10:58:00Z,00000200,61000000,,,,,,,-000.04,-000.13,-000.08,17.9,25.0,,00.0,0631.8,31.1
2021-03-21T10:59:00Z,00000200,21000000,,,,,,,0000.04,0000.03,-000.17,17.9,25.1,,00.0,0631.8,31.1
